Etusivu
METAR-TAF:

METAR-TAF

Lentoasemat :

Pittsfield Penstone Municipal Airport

Pittsfield, Illinois, Yhdysvallat

Leveyspiiri: 39-38-20N, Pituuspiiri: 090-46-42W, korkeus merenpinnasta: 216 m

Tämänhetkinen sää

Tämä raportti tehtiin 20 minuuttia sitten, kello 18.15 UTC
Tuuli 3 kn lounaasta
Lämpötila 6°C
Kosteus 56%
Ilmanpaine 1030 hPa
Näkyvyys: 16.1 km
selkeää

METAR: KPPQ 251815Z AUTO 22003KT 10SM CLR 06/M02 A3042 RMK AO2 T00581023

Aika: 12:35 (18:35 UTC)


TAF: puuttuu

Säähavainnot ja -ennusteet yli 4000 lentoasemalta (METAR- ja TAF-raportit).

Käytössä olevat sääasemat on merkitty karttaan keltaisilla ja punaisilla pisteillä.

Aseta hiiri pisteen päälle nähdäksesi sääaseman nimen.

Klikkaa sitten nähdäksesi säähavainnot ja -ennusteet.

Kartan vaihtaminen: klikkaa mustalla rastilla varustettuja vihreitä pisteitä, niin voit zoomata sisään; viivalla varustettua vihreää pistettä, niin voit zoomata ulos tai vihreitä nuolia, niin pääset viereisille kartoille.


METAR-TAF: